Flag for U.S.A. Weather past 2 weeks in McAllen, Texas, U.S.A.

Now
81 °F

Passing clouds.


Feels Like: 87 °F
Forecast: 79 / 92 °F
Wind: 5 mph from Southeast

Location: Miller International Airport

Current Time: Aug 29, 2014 at 3:00:40 AM

Latest Report: Aug 29, 2014 at 1:53 AM


Visibility: 10 mi

Pressure: 29.81 "Hg

Humidity: 85%

Dew point: 76 °F

Location of McAllenLocation

Historic Weather in McAllen — Graph

°F

McAllen temperature yesterday

Maximum temperature yesterday: 95 °F (at 12:53 PM)
Minimum temperature yesterday: 81 °F (at 2:53 AM)
Average temperature yesterday: 86 °F

Past Weeks' High & Low Weather Summary

 TemperatureHumidityPressure
High102 °F (Aug 15, 3:53 PM)94% (Aug 14, 4:53 AM)30.05 "Hg (Aug 14, 4:53 AM)
Low77 °F (Aug 14, 4:53 AM)21% (Aug 22, 4:53 PM)29.75 "Hg (Aug 28, 6:53 PM)
Average88 °F63%29.91 "Hg
* Reported Aug 14 1:53 AM — Aug 29 1:53 AM, McAllen, Weather by CustomWeather, © 2014

Note: Actual official high and low records may vary slightly from our data, if they occured in-between our weather recording intervals... More about our weather records

Advertising

McAllen weather history for previous 24 hours

 ConditionsComfort  
Time TempWeatherWind HumidityBarometerVisibility
1:53 AM
Aug 29
81 °FPassing clouds.5 mph85%29.81 "Hg10 mi
12:53 AM82 °FClear.No wind85%29.81 "Hg10 mi
11:53 PM
Aug 28
83 °FPassing clouds.6 mph82%29.82 "Hg10 mi
10:53 PM83 °FClear.6 mph77%29.81 "Hg10 mi
9:53 PM84 °FClear.8 mph72%29.80 "Hg10 mi
8:53 PM86 °FSunny.9 mph65%29.79 "Hg10 mi
7:53 PM89 °FSunny.13 mph59%29.76 "Hg10 mi
6:53 PM93 °FPassing clouds.9 mph49%29.75 "Hg10 mi
5:53 PM94 °FPartly sunny.9 mph49%29.77 "Hg10 mi
4:53 PM86 °FScattered clouds.No wind70%29.76 "Hg10 mi
3:53 PM87 °FLight rain. Scattered clouds.10 mph69%29.78 "Hg10 mi
2:53 PM94 °FBroken clouds.8 mph51%29.78 "Hg10 mi
1:53 PM94 °FBroken clouds.15 mph51%29.80 "Hg10 mi
12:53 PM95 °FPassing clouds.14 mph47%29.82 "Hg10 mi
11:53 AM94 °FBroken clouds.9 mph52%29.85 "Hg10 mi
10:53 AM90 °FPassing clouds.10 mph59%29.86 "Hg10 mi
10:00 AM86 °FBroken clouds.9 mph70%29.88 "Hg10 mi
8:53 AM83 °FBroken clouds.10 mph77%29.87 "Hg10 mi
7:53 AM81 °FMostly cloudy.9 mph82%29.87 "Hg10 mi
6:53 AM81 °FOvercast.6 mph82%29.85 "Hg10 mi
5:53 AM81 °FPassing clouds.9 mph82%29.84 "Hg10 mi
4:53 AM81 °FMostly cloudy.7 mph82%29.87 "Hg10 mi
3:53 AM81 °FPassing clouds.3 mph82%29.86 "Hg10 mi
Weather by CustomWeather, © 2014

See weather overviewHow to use our weather pages